sat.trackr.live / text

‹ back to catalog

STARLINK-36353

NORAD 67820 · 2026-032Z

PAYLOAD ACTIVE UNKNOWN

§ Identity

Operator
Country
US
Launch date
2026-02-15
Launch site
AFWTR
Launch vehicle
Mass (kg)
RCS (m²)

Purposes: comms

External: N2YO · Heavens-Above · Gunter

§ Orbital elements

Epoch: 2026-09-19T18:26:35.412288Z

Period
93.91 min
Inclination
97.2855°
Eccentricity
0.0001647
Mean motion
15.33449807 rev/d
Perigee alt
464.4 km
Apogee alt
466.7 km
Semi-major
6,843.7 km
B*
4.9103e-4
RAAN
89.1923°
Arg perigee
77.4365°
Mean anomaly
282.7062°
Rev number
3,470

§ Raw data

STARLINK-363531 67820U 26032Z   26262.76846542  .00015813  00000+0  49103-3 0  99932 67820  97.2855  89.1923 0001647  77.4365 282.7062 15.33449807 34708

JSON: /api/v1/satellites/67820 · /tle

For live sub-satellite position, see the globe view (requires WebGL).

§ Visibility from observer

Set your observer location to see the next 7 days of passes ≥ 10°. The values pass through the URL so the page stays shareable.

No JS? Fill the form by hand. The geolocation button needs JavaScript.